Location: Shepherdstown, WV
(39.4326°N, 77.8042°W)
Time: 20:26:00
(UTC-04:00)

Vanguard 1 Rocket - Pass Details

Date: 15 August 2021
Orbit: 650 x 4226 km, 34.3° (Epoch: 19 September)

Event Time Altitude Azimuth Distance (km) Brightness Sun altitude
Rises 14:58:49 0° 284° (WNW) 7,271 12.3 55.8°
Reaches altitude 10° 15:06:21 10° 270° (W) 5,508 12.0 54.7°
Maximum altitude 15:15:08 18° 234° (SW) 3,828 11.6 53.3°
Drops below altitude 10° 15:21:20 10° 194° (SSW) 3,671 11.1 52.3°
Sets 15:24:57 0° 175° (S) 4,174 11.0 51.7°
